Regional Weather Roundup
Issued by NWS

Home | Current Version | Previous Version | Graphics & Text | Print | Product List | Glossary Off
Versions: 1 2 3 4 5 6 7 8 9 10 11 12 13 14 15 16 17 18 19 20 21 22 23 24 25 26 27 28 29 30 31 32 33 34 35 36 37 38 39 40 41 42 43 44 45 46 47 48 49 50

000
ASUS43 KDMX 302007
RWRIA

WEATHER ROUNDUP FOR IOWA
NATIONAL WEATHER SERVICE DES MOINES IA
300 PM CDT TUE SEP 30 2014

NOTE: "FAIR" INDICATES FEW OR NO CLOUDS BELOW 12,000 FEET WITH NO
SIGNIFICANT WEATHER AND/OR OBSTRUCTIONS TO VISIBILITY.

* - THESE STATIONS ARE NOT NWS STATIONS...THUS NOT UNDER NWS
QUALITY CONTROL.  THEY ALSO DO NOT REPORT WEATHER SUCH
AS PRECIPITATION OR FOG.

IAZ001>003-012>014-020>022-031>034-043>046-302100-
   NORTHWEST IOWA

CITY           SKY/WX    TMP DP  RH WIND       PRES   REMARKS
CARROLL *      MOSUNNY   70  59  68 SE9G20    29.84F
CHEROKEE *     CLOUDY    64  61  88 SE7       29.84R
DENISON *      RAIN      70  63  78 W6        29.80S
LE MARS *      LGT RAIN  64  63  94 S14G23    29.81S
ORANGE CITY *  RAIN      66  63  88 S13       29.82R
SHELDON *      CLOUDY    63  61  94 SE13      29.82R
SIOUX CITY     RAIN      65  63  93 S9        29.81S FOG
SPENCER        CLOUDY    63  56  78 SE16      29.85F
STORM LAKE *   MOSUNNY   68  59  73 SE14      29.85F
$$

IAZ055>058-069>071-079>083-090>094-302100-
   SOUTHWEST IOWA

CITY           SKY/WX    TMP DP  RH WIND       PRES   REMARKS
ATLANTIC *     PTSUNNY   79  61  53 S10       29.79F HX  80
AUDUBON *      SUNNY     73  61  64 E12       29.83F
CLARINDA *     MOSUNNY   81  59  47 S8G20     29.81F HX  81
COUNCIL BLFS * RAIN      66  66 100 NW12      29.80S
CRESTON *      MOSUNNY   77  64  65 SE15G22   29.84F
HARLAN  *      PTSUNNY   75  63  64 VRB3      29.82F
LAMONI         SUNNY     79  64  60 SE8       29.84F HX  81
RED OAK *      CLOUDY    79  61  53 S8        29.79F HX  80
SHENANDOAH *   MOSUNNY   81  57  44 S12G20    29.79F HX  81
$$

IAZ047>049-059>061-072>074-084-302100-
   CENTRAL IOWA

CITY           SKY/WX    TMP DP  RH WIND       PRES   REMARKS
AMES           MOSUNNY   65  57  75 SE12      29.89F
ANKENY *       PTSUNNY   64  59  82 SE10G17   29.89F
CHARITON *     SUNNY     73  61  64 SE12      29.88F
DES MOINES     MOSUNNY   67  58  72 E13       29.89F HAZE
GRINNELL*      SUNNY     64  55  72 SE13      29.93F
KNOXVILLE *    SUNNY     70  57  64 VRB7G17   29.88F
MARSHALLTOWN   MOSUNNY   64  55  72 E15       29.92F
PELLA *        SUNNY     72  57  60 E7        29.91F
PERRY *          N/A     70  57  64 E14G21    29.86F
$$

IAZ004>006-015-016-023>025-035-036-302100-
   NORTH CENTRAL IOWA

CITY           SKY/WX    TMP DP  RH WIND       PRES   REMARKS
ALGONA *       MOSUNNY   66  55  68 SE14      29.89S
CLARION *      SUNNY     64  54  68 SE12G22   29.89F
ESTHERVILLE    PTSUNNY   63  54  72 SE15      29.86F
FORT DODGE *   MOSUNNY   66  55  68 S7G18     29.89S
MASON CITY     PTSUNNY   61  52  72 E9G18     29.93F
FOREST CITY *  MOSUNNY   59  54  82 E14       29.91F
IOWA FALLS *     N/A     66  54  63 E12       29.92F
$$

IAZ007>011-017>019-026>030-037>042-050>054-066-302100-
   NORTHEAST IOWA

CITY           SKY/WX    TMP DP  RH WIND       PRES   REMARKS
CHARLES CITY * SUNNY     61  50  67 SE12      29.96F
CLINTON *      PTSUNNY   61  48  63 E12       30.02F
DECORAH *      SUNNY     55  46  71 E10       29.98F
DUBUQUE        SUNNY     54  46  76 E10       30.00
MONTICELLO *   SUNNY     59  48  67 E10       29.97F
OELWEIN *      MOSUNNY   61  48  63 SE12      29.97F
WATERLOO       MOSUNNY   62  51  67 SE12      29.94F
$$

IAZ064-065-067-068-078-302100-
   EAST CENTRAL IOWA

CITY           SKY/WX    TMP DP  RH WIND       PRES   REMARKS
IOWA CITY      SUNNY     65  53  65 E8        29.96F
MT. PLEASANT * MOSUNNY   66  54  63 E10       29.94F
MUSCATINE *    SUNNY     68  52  56 E12       29.95F
$$

IAZ062-063-075>077-085>089-095>099-302100-
   SOUTHEAST IOWA

CITY           SKY/WX    TMP DP  RH WIND       PRES   REMARKS
BURLINGTON     MOSUNNY   68  57  68 E7        29.94F
FAIRFIELD *    SUNNY     66  55  68 SE12      29.93F
FORT MADISON * SUNNY     72  57  60 SE6       29.94F
KEOKUK *       SUNNY     70  61  73 E8        29.92F
OSKALOOSA *      N/A     70  57  64 SE10G17   29.92F
CENTERVILLE *  SUNNY     70  63  78 E8        29.91F
OTTUMWA        SUNNY     69  57  65 SE13      29.90F
WASHINGTON *   SUNNY     68  55  64 E10       29.94F
$$

ABBREVIATIONS USED IN REMARKS
   TC - TEMPERATURES IN CELSIUS
  WCI - WIND CHILL INDEX
   HX - HEAT INDEX
  VSB - VISIBILITY
$$



USA.gov is the U.S. government's official web portal to all federal, state and local government web resources and services.